Flag for Canada Weather past 2 weeks in Kamloops, British Columbia, Canada

55 °F

Mostly cloudy.

Feels Like: 55 °F
Forecast: 49 / 62 °F
Wind: No wind

Location: Kamloops

Current Time: Oct 8, 2015 at 11:08:27 AM

Latest Report: Oct 8, 2015 at 10:00 AM

Visibility: 30 mi

Pressure: 30.21 "Hg

Humidity: 94%

Dew point: 54 °F

Location of KamloopsLocation

Historic Weather in Kamloops — Graph


Kamloops temperature yesterday

Maximum temperature yesterday: 64 °F (at 4:00 PM)
Minimum temperature yesterday: 45 °F (at 4:00 AM)
Average temperature yesterday: 53 °F

Past Weeks' High & Low Weather Summary

High73 °F (Sep 24, 3:00 PM)100% (Oct 7, 1:00 AM)30.35 "Hg (Oct 7, 1:00 AM)
Low34 °F (Oct 4, 7:00 AM)25% (Sep 23, 5:00 PM)29.83 "Hg (Sep 24, 4:00 PM)
Average53 °F68%30.09 "Hg
* Reported Sep 23 10:00 AM — Oct 8 10:00 AM, Kamloops, Weather by CustomWeather, © 2015

Note: Actual official high and low records may vary slightly from our data, if they occured in-between our weather recording intervals... More about our weather records


Kamloops weather history for previous 24 hours

Time TempWeatherWind HumidityBarometerVisibility
10:00 AM
Thu, Oct 8
55 °FMostly cloudy.No wind94%30.21 "Hg30 mi
9:00 AM54 °FPartly sunny.No wind94%30.22 "Hg30 mi
8:00 AM50 °FPassing clouds.No wind100%30.22 "Hg30 mi
7:00 AM48 °FMostly cloudy.No wind94%30.21 "Hg30 mi
6:46 AM50 °FPassing clouds.No wind94%30.20 "Hg30 mi
6:00 AM48 °FPartly cloudy.3 mph100%30.20 "Hg40 mi
5:00 AM50 °FPartly cloudy.3 mph94%30.19 "Hg40 mi
4:00 AM48 °FOvercast.3 mph94%30.19 "Hg40 mi
3:00 AM50 °FOvercast.3 mph100%30.19 "Hg40 mi
2:00 AM52 °FPassing clouds.No wind94%30.18 "Hg40 mi
1:00 AM52 °FPartly cloudy.3 mph100%30.18 "Hg40 mi
12:00 AM54 °FMostly cloudy.5 mph100%30.16 "Hg30 mi
11:00 PM
Wed, Oct 7
55 °FSprinkles. Mostly cloudy.No wind88%30.17 "Hg25 mi
10:00 PM55 °FMostly cloudy.2 mph88%30.15 "Hg40 mi
8:00 PM59 °FSprinkles. Mostly cloudy.6 mph72%30.11 "Hg30 mi
7:04 PM61 °FSprinkles. Mostly cloudy.10 mph63%30.09 "Hg30 mi
6:00 PM63 °FMore clouds than sun.10 mph59%30.06 "Hg40 mi
5:00 PM63 °FOvercast.9 mph59%30.05 "Hg40 mi
4:00 PM64 °FOvercast.2 mph56%30.06 "Hg40 mi
3:00 PM63 °FOvercast.2 mph59%30.06 "Hg40 mi
2:00 PM61 °FOvercast.No wind63%30.07 "Hg40 mi
1:00 PM59 °FPartly sunny.2 mph68%30.09 "Hg40 mi
12:00 PM57 °FPartly sunny.5 mph72%30.09 "Hg40 mi
11:00 AM54 °FBroken clouds.7 mph82%30.10 "Hg40 mi
Weather by CustomWeather, © 2015

See weather overviewHow to use our weather pages